ECMWFFLT1_925_thetae_132.txt.gz
Theta_e
337 336 334 333 330 330 330 328 328 329 329 329 327 327 326 326 326 326 325 325 323 322 320 319 319 318 317 316 316 316 316 317 318 316 316 317 315 315 314 312 311 311 311 313 315 315 315 312 310 310 309 307 306 306 307 307 306 306 306 306 307 306 306
336 333 331 329 328 328 328 327 328 330 329 327 325 324 324 324 324 324 323 322 320 319 318 317 316 314 314 315 315 314 313 313 314 313 312 313 314 314 314 313 313 312 311 312 313 313 313 313 310 311 310 309 308 306 306 307 306 306 305 305 306 306 305
332 331 329 327 326 326 326 326 328 328 326 325 324 322 322 322 322 322 321 319 317 316 316 315 313 311 311 312 311 311 311 311 310 311 312 312 312 312 312 312 313 312 312 312 312 312 313 313 311 310 310 310 310 308 306 307 306 305 305 304 305 305 305
331 331 328 325 324 324 325 325 326 325 324 323 321 320 320 320 320 320 318 316 315 315 315 314 313 312 311 310 308 307 309 310 309 310 310 311 311 310 310 310 311 311 311 311 311 311 311 313 312 310 309 309 308 307 306 307 306 304 304 303 304 304 304
331 331 330 327 325 324 325 325 324 323 321 320 319 319 319 318 318 317 316 315 315 314 314 313 312 311 310 309 308 308 308 310 310 310 311 310 309 309 309 309 309 309 309 309 309 310 310 310 311 310 309 309 309 307 306 306 305 303 303 303 303 303 303
331 330 329 327 326 325 326 325 323 321 319 319 319 319 318 317 317 317 316 315 314 312 312 312 310 309 308 307 307 308 308 308 309 309 310 310 309 309 308 308 308 308 308 308 308 308 308 308 309 310 309 309 309 308 306 305 304 302 303 303 303 302 302
330 328 327 326 326 326 325 324 322 321 320 319 319 319 318 317 317 316 315 314 312 311 310 309 308 307 307 307 307 308 308 307 307 308 308 309 308 308 308 307 307 307 307 307 306 306 307 307 307 309 309 309 309 307 306 305 303 302 302 303 302 301 302
328 327 326 326 326 325 324 324 322 321 319 317 317 317 317 317 316 315 314 312 311 310 310 308 306 306 307 307 307 308 307 307 307 307 308 308 308 307 307 306 306 306 306 306 306 305 306 306 306 306 307 308 308 307 307 306 303 302 302 302 302 301 302
326 326 325 325 325 325 324 324 322 320 318 316 315 315 316 315 315 314 313 311 310 310 309 308 307 307 307 307 307 307 307 307 307 306 307 307 307 307 306 306 306 305 305 305 305 305 305 305 305 305 305 306 307 307 307 307 305 303 302 302 302 301 301
326 325 325 325 324 324 324 323 321 318 316 314 314 314 315 314 314 313 312 311 310 309 308 307 307 307 307 307 307 307 307 307 307 306 306 307 307 306 306 305 305 305 304 304 304 305 305 305 305 305 304 304 306 306 306 306 305 303 303 302 302 302 301
325 324 324 324 324 323 323 321 318 316 314 313 313 313 314 313 313 312 311 310 309 308 308 307 307 307 307 307 307 306 306 306 307 306 306 306 306 306 305 305 305 305 304 304 304 304 304 305 304 304 304 304 305 305 306 306 304 303 303 302 302 302 301
325 325 324 323 324 323 321 319 316 314 313 313 313 314 313 313 312 311 310 310 309 308 307 307 307 307 307 306 306 306 306 306 306 306 306 305 305 305 305 305 305 305 304 304 304 303 304 304 304 304 304 304 303 304 305 305 305 303 303 302 302 302 301
324 325 324 324 325 323 319 317 315 313 313 314 314 313 313 312 312 311 310 310 309 307 306 307 306 306 306 306 306 306 306 305 305 305 305 305 304 304 303 303 304 304 304 304 303 303 303 304 303 303 303 303 303 303 303 304 305 304 303 302 302 302 301
323 324 324 324 324 321 317 315 314 314 314 314 314 313 312 312 311 310 310 309 308 307 306 307 306 306 306 306 306 306 305 304 304 304 304 304 304 303 303 302 303 303 303 303 303 303 303 303 302 302 302 302 302 302 303 303 304 304 303 303 302 302 301
324 324 323 324 322 318 315 314 314 314 314 313 313 312 312 311 311 310 309 308 307 306 306 306 306 306 306 306 305 305 304 304 303 303 303 304 304 304 303 302 303 303 303 303 303 302 303 302 302 302 302 302 302 302 302 303 303 303 303 303 302 302 301
323 323 323 322 320 316 314 314 314 314 314 313 312 312 311 311 310 310 309 307 306 306 306 306 306 305 305 305 305 304 304 304 304 303 303 303 303 303 303 303 303 303 303 303 303 302 303 302 302 302 302 302 302 302 303 303 303 303 303 303 303 302 301
321 321 323 321 317 314 314 314 313 314 313 312 312 312 311 310 310 309 308 306 306 306 305 305 305 305 304 304 304 304 304 304 304 303 303 303 303 303 303 303 303 303 302 303 302 302 302 302 302 302 302 302 302 302 303 302 302 302 303 303 303 302 301
319 322 323 320 316 314 314 313 313 313 313 312 312 311 311 310 309 308 307 306 306 305 305 305 304 304 304 304 304 304 304 303 303 303 303 303 303 302 302 302 302 302 302 302 302 302 302 303 302 301 302 302 301 302 303 302 302 302 302 303 302 301 301
320 323 323 318 315 315 314 313 313 313 312 312 311 310 310 309 308 307 306 305 305 305 305 304 304 304 303 303 304 303 303 303 303 302 302 302 302 302 302 302 301 301 301 302 302 302 302 303 302 302 302 302 302 302 302 302 302 302 302 302 301 301 301
321 322 320 316 315 314 313 314 313 312 312 312 311 310 309 309 308 306 305 305 305 305 304 304 304 303 303 303 303 303 303 303 302 302 302 301 302 302 302 301 301 300 300 301 301 301 302 303 303 301 301 302 301 301 302 301 301 301 301 301 301 301 300
320 319 317 316 315 314 313 313 312 312 312 311 310 310 309 308 307 306 305 305 305 304 304 304 303 303 303 303 303 303 302 302 302 301 301 301 301 302 301 300 299 298 297 297 297 297 298 300 302 301 300 301 300 301 301 301 300 301 301 301 300 300 300
317 316 316 316 315 314 313 312 312 312 312 311 310 309 309 308 306 305 305 305 305 304 304 303 303 303 303 303 303 302 302 302 302 301 301 301 301 300 299 298 296 294 293 292 293 294 294 295 298 299 299 299 299 299 300 300 300 300 300 300 300 300 300
316 315 316 316 314 313 312 312 312 312 311 310 310 309 308 307 306 305 305 305 304 304 304 303 302 302 302 302 302 302 302 302 302 301 301 301 300 299 298 296 294 293 293 292 292 292 293 293 294 295 295 296 296 297 298 299 299 299 300 300 300 299 299
315 315 315 314 313 312 311 312 312 311 310 310 309 309 308 307 305 304 305 305 304 304 304 302 301 301 301 301 302 303 302 302 302 302 301 301 300 300 299 298 296 295 296 296 295 293 292 292 292 292 292 293 293 294 296 297 298 299 299 300 300 299 299
314 314 313 312 311 311 311 312 311 311 310 309 309 308 307 306 305 304 304 304 304 304 303 300 299 299 300 300 302 302 302 302 302 302 301 301 300 300 299 298 297 296 295 296 298 297 295 293 292 292 293 293 292 292 292 294 295 296 299 300 299 298 298
314 313 312 311 311 311 312 312 311 310 310 309 308 308 307 306 305 304 304 304 304 303 301 297 297 298 298 299 301 302 302 302 302 301 301 301 300 300 299 298 298 297 295 295 297 299 298 296 295 295 296 296 295 293 292 292 293 294 297 299 299 298 298
312 311 311 311 312 312 312 311 310 310 309 308 308 308 307 306 305 304 304 303 303 303 300 297 297 297 296 298 300 301 302 302 301 301 301 300 300 300 299 299 298 298 298 296 294 296 297 298 299 299 298 298 298 296 294 293 294 295 296 298 298 297 297
311 310 310 311 312 311 311 310 310 309 309 308 308 307 307 306 304 304 304 304 304 303 299 297 297 296 296 296 299 301 302 301 301 301 300 300 299 299 299 299 298 299 299 295 291 291 294 297 300 300 299 300 300 299 296 293 292 292 293 295 296 296 296
310 310 310 311 312 311 311 310 309 309 308 308 307 307 306 305 304 304 304 304 304 303 299 297 296 296 295 295 298 301 302 301 301 301 300 299 299 299 299 299 298 299 298 294 291 290 291 296 299 299 300 301 300 300 298 295 292 291 291 292 293 292 292
310 310 310 311 311 310 310 309 309 308 307 307 307 306 305 304 304 305 304 303 304 302 299 296 296 296 295 295 298 301 301 300 300 300 300 299 299 299 298 298 298 300 298 293 290 290 291 295 299 299 300 301 299 298 298 297 296 294 293 293 294 294 293
310 309 310 310 310 310 309 309 308 307 307 307 306 305 305 304 304 303 302 302 302 301 298 296 296 296 295 296 299 301 301 300 300 300 299 299 300 298 295 293 295 299 297 292 290 290 291 295 298 299 299 300 299 298 297 297 297 296 295 297 297 297 297
310 309 309 310 309 309 308 308 307 307 307 306 306 305 304 303 301 300 299 300 300 299 297 296 296 295 295 295 299 301 300 300 300 300 299 299 299 299 296 292 292 294 293 290 290 290 291 293 297 299 299 299 299 297 295 296 297 296 297 299 299 298 297
309 309 309 309 308 308 307 306 306 306 305 305 304 303 301 300 299 299 299 300 301 300 298 296 295 295 295 295 298 300 301 300 300 300 299 299 299 299 298 296 293 291 291 290 289 290 291 291 294 297 298 297 296 295 293 294 296 296 297 299 298 297 296
308 308 308 308 307 305 303 302 302 302 303 303 302 301 301 300 300 300 300 301 301 301 300 298 296 296 296 295 297 299 300 300 300 300 299 299 299 299 299 300 297 292 290 290 290 291 292 290 292 295 295 293 293 292 291 294 297 297 297 297 297 296 296
308 307 306 305 304 302 300 299 299 301 302 303 302 301 301 301 301 301 301 301 301 302 302 301 299 298 298 297 297 298 300 301 300 300 300 299 299 299 299 300 298 293 291 291 290 290 291 290 291 292 292 291 291 291 292 295 297 297 297 296 296 297 296
307 305 304 304 302 301 300 301 301 302 303 303 303 303 302 302 301 302 302 302 302 303 303 302 301 300 299 299 298 297 299 300 299 299 300 300 300 299 299 299 297 293 292 291 290 290 291 291 291 291 290 291 291 292 294 296 297 296 297 297 296 297 297
306 305 304 303 303 302 302 302 302 302 303 304 304 304 303 303 302 302 302 302 303 303 304 303 302 300 300 300 299 298 298 299 298 297 299 300 300 299 300 300 297 293 293 293 291 290 290 290 291 291 290 291 292 294 296 297 296 296 297 297 297 298 298

ECMWFFLT1_925_thetae_138.txt.gz
Theta_e
337 336 336 336 335 335 335 335 335 334 334 333 333 333 333 332 331 330 329 328 327 326 326 325 324 322 320 320 321 322 322 323 323 319 316 316 316 317 316 316 316 317 318 318 319 320 321 320 314 310 310 311 311 309 307 308 309 308 306 306 306 305 304
335 336 336 335 335 334 333 333 333 333 332 332 331 332 331 330 329 328 327 326 324 323 322 322 320 319 317 318 319 320 320 320 320 320 319 318 318 318 318 317 316 316 316 316 316 316 318 320 318 316 313 313 313 310 306 307 309 307 305 305 304 304 304
334 335 335 334 334 333 332 332 332 331 330 329 329 329 329 328 327 326 325 324 322 321 319 317 316 316 316 317 317 317 318 318 318 318 317 317 317 317 317 317 317 316 316 316 316 316 317 318 318 316 314 315 315 311 306 307 307 306 305 303 303 303 303
334 335 334 333 332 332 332 331 330 329 328 327 328 327 326 326 325 324 323 321 320 319 317 314 312 313 315 316 315 315 315 315 315 315 315 315 315 315 315 315 315 315 315 315 315 315 316 317 318 316 311 312 314 310 306 306 305 305 304 303 302 303 302
335 334 333 332 332 332 331 330 329 328 327 326 326 326 325 324 323 322 321 320 318 317 316 313 312 314 315 316 315 314 314 314 314 314 314 314 314 313 313 313 313 313 313 313 312 312 313 314 316 316 312 310 312 309 305 304 304 304 304 302 302 302 303
335 334 332 331 331 331 330 329 328 327 325 324 324 324 324 322 321 321 319 317 316 315 314 314 314 315 315 315 314 314 314 314 314 314 313 313 313 312 312 312 312 312 311 311 310 311 311 311 311 313 313 312 312 308 304 304 304 304 304 303 303 303 303
335 333 332 331 330 330 329 328 327 326 324 323 324 323 322 321 320 319 317 315 314 313 313 313 313 313 312 312 312 312 313 312 312 312 312 312 312 311 311 310 310 310 310 310 309 309 309 309 309 310 312 313 312 307 303 304 304 304 304 304 303 303 303
334 332 331 330 330 329 328 328 326 325 324 323 323 322 321 320 319 317 315 314 313 313 313 314 314 313 312 312 311 311 311 311 311 311 311 311 310 310 310 310 309 309 309 309 309 309 309 309 307 308 310 313 315 311 305 304 304 304 305 305 304 304 303
333 332 331 331 330 329 328 327 325 323 323 322 321 320 320 319 317 316 315 314 312 313 314 314 314 312 311 310 310 311 311 311 310 310 310 310 310 309 308 308 308 308 309 309 309 308 308 308 307 307 308 310 313 315 311 308 306 305 305 305 305 305 304
333 332 331 330 329 329 327 325 324 323 322 321 320 320 320 318 316 316 315 313 312 313 313 313 312 310 309 310 310 311 311 311 310 310 310 310 309 309 308 308 307 307 307 308 308 308 308 307 306 306 307 307 310 313 314 312 308 306 306 306 306 305 304
332 332 331 330 329 327 326 324 323 322 321 320 320 319 319 317 316 315 314 313 313 313 313 312 311 310 310 311 311 311 311 310 310 310 309 309 308 308 307 307 307 307 307 307 307 307 307 307 306 306 306 306 308 310 311 312 310 307 306 306 306 305 305
332 331 330 329 328 326 325 324 323 322 320 320 319 318 318 316 315 314 313 312 312 312 312 312 311 311 310 310 310 310 310 310 310 309 309 309 309 308 307 307 307 307 307 307 307 306 306 306 306 306 306 306 306 308 308 310 310 308 306 306 306 305 304
331 330 329 327 326 325 325 324 323 321 320 318 318 317 317 315 314 313 312 312 312 312 312 312 311 310 310 310 310 310 310 309 308 308 308 308 308 308 308 308 308 307 307 307 307 306 306 306 306 306 306 306 306 307 307 308 309 308 306 306 306 305 304
330 329 328 326 325 324 324 323 322 320 318 317 317 317 316 315 314 313 312 312 312 312 312 311 310 310 310 310 310 309 309 308 307 307 307 307 307 307 307 307 307 307 307 307 307 306 306 306 306 306 306 306 306 306 306 307 307 307 306 306 305 304 303
329 328 326 325 324 323 322 321 319 318 317 317 317 317 316 315 314 313 312 312 312 312 311 310 310 310 310 309 309 309 309 308 307 307 307 307 307 306 307 307 307 307 306 307 307 307 306 306 306 306 305 306 306 306 306 306 306 306 306 306 305 304 303
329 327 326 324 323 323 321 319 318 317 317 317 317 316 315 315 314 312 311 311 311 311 311 311 310 310 309 309 309 309 308 308 308 308 307 307 307 306 306 307 307 307 306 306 306 306 306 306 306 306 305 305 305 305 306 305 305 305 305 305 304 303 302
328 327 325 324 323 322 320 318 317 318 318 317 317 316 315 314 313 311 311 311 311 311 310 311 310 309 309 309 309 308 308 308 307 307 307 307 307 307 307 307 307 307 306 306 306 307 306 305 305 306 305 304 304 305 305 305 304 304 305 305 304 303 302
328 327 325 323 322 321 319 319 319 318 318 317 316 315 314 314 313 311 310 310 310 310 310 310 309 309 309 309 308 308 308 307 307 307 307 307 307 306 306 306 306 307 307 306 307 307 306 305 304 305 304 304 304 304 304 304 303 303 304 304 303 302 301
327 326 324 323 322 320 319 320 319 318 317 316 316 315 314 314 312 311 310 310 310 310 310 310 309 309 308 308 308 308 308 308 307 307 306 306 306 306 306 306 306 306 307 307 307 308 307 304 303 303 303 303 303 303 303 303 302 302 303 303 303 302 301
327 324 323 322 321 320 320 320 318 317 317 316 316 315 314 313 312 311 310 310 310 310 309 309 309 308 308 308 308 308 308 307 307 306 306 306 305 305 305 305 305 306 306 305 306 308 307 305 302 300 300 301 301 302 302 302 301 301 303 303 302 301 301
326 323 322 322 321 321 321 320 318 317 317 316 315 315 314 313 311 310 310 310 309 309 309 308 308 308 308 308 308 307 307 307 306 306 306 305 305 304 304 304 304 304 303 302 304 306 306 304 300 297 297 299 300 300 300 300 300 300 302 303 302 301 300
324 323 322 322 321 321 321 320 318 317 317 316 315 314 314 312 310 310 310 309 309 309 308 308 308 308 308 308 307 307 306 306 306 306 306 305 303 302 301 300 299 298 297 298 300 302 301 299 296 295 296 296 296 297 298 299 299 300 301 303 302 300 300
323 322 322 321 321 321 320 319 318 317 316 316 315 314 313 311 310 310 309 309 309 309 308 308 308 308 308 308 307 307 306 306 306 306 305 303 302 301 298 296 294 294 294 294 295 296 295 295 295 295 295 295 295 295 295 296 298 299 301 302 301 300 300
322 322 322 321 321 320 320 319 318 317 316 315 315 314 312 311 310 309 309 309 309 308 308 308 308 308 308 307 307 306 306 306 305 305 304 302 300 297 294 292 293 293 293 294 294 294 294 295 295 296 296 296 295 295 294 294 296 297 299 301 301 300 299
322 322 321 320 320 320 319 319 318 317 316 315 314 313 312 310 310 309 309 309 309 309 308 307 307 307 307 306 306 306 305 305 305 304 303 301 298 296 295 296 297 297 297 297 297 297 297 297 298 299 299 299 299 298 296 294 294 295 297 299 300 299 298
322 322 321 320 319 319 319 318 318 317 316 315 314 312 311 310 309 309 309 309 309 309 308 307 306 306 306 306 306 306 306 305 305 304 303 302 300 300 300 301 300 300 300 300 300 301 301 300 301 301 302 301 302 302 299 295 295 295 296 298 299 299 298
322 321 321 320 319 319 319 318 317 316 315 314 314 312 311 310 310 310 309 309 309 309 307 306 305 305 305 306 306 306 306 305 305 304 304 303 303 302 301 301 300 299 300 300 301 302 302 302 302 303 303 303 303 303 301 297 296 296 296 296 298 298 298
322 321 320 319 319 318 319 318 317 316 315 314 314 313 311 310 310 310 309 309 309 308 306 305 304 304 305 306 306 306 305 305 305 305 304 303 302 302 301 301 301 301 299 298 298 300 302 302 303 304 304 304 303 304 303 299 297 297 297 297 298 298 298
322 321 320 319 318 318 319 319 318 317 316 314 314 313 311 310 310 310 310 309 309 308 306 304 304 304 305 305 305 305 305 305 305 305 304 303 303 303 303 302 302 302 300 296 294 296 299 300 302 304 304 303 303 303 302 300 298 298 298 298 299 299 299
320 320 319 319 318 319 319 319 318 317 315 314 314 313 311 310 310 310 310 309 308 307 305 304 303 304 304 305 305 305 305 304 304 304 304 303 303 303 303 302 302 302 300 297 293 294 297 300 302 303 303 303 302 301 300 299 296 297 299 299 300 300 300
319 319 319 318 318 319 319 318 318 316 315 314 313 312 311 310 310 310 310 309 308 307 304 303 303 303 303 304 304 304 304 304 304 303 303 302 302 302 302 302 302 302 301 298 294 293 296 300 302 303 303 303 302 301 300 298 295 297 299 300 300 300 300
319 319 318 318 319 319 318 318 317 316 315 314 313 312 311 310 309 309 309 308 307 306 303 302 302 302 302 303 303 303 303 303 303 303 302 302 302 302 301 302 302 302 302 300 295 293 295 299 302 303 302 301 301 300 299 296 295 297 299 299 300 300 300
319 319 318 318 319 319 318 318 317 315 315 314 313 312 311 310 309 309 308 307 307 305 301 300 301 300 301 302 303 302 303 303 303 303 302 301 302 302 300 300 302 302 302 299 295 293 294 296 300 301 300 300 300 298 296 295 296 298 299 299 300 300 300
319 319 319 319 319 319 318 317 316 315 314 313 313 312 310 309 308 308 307 307 306 303 299 298 298 298 300 302 302 302 303 303 302 302 302 301 302 302 299 297 298 300 300 297 294 293 293 294 296 297 298 298 297 294 293 295 298 299 299 299 300 300 301
320 319 319 319 319 319 318 316 315 314 314 313 312 310 309 308 308 307 306 306 305 302 299 297 297 297 299 301 301 301 303 304 303 302 302 301 301 302 301 298 297 296 295 293 292 292 293 294 294 295 296 296 295 293 294 297 298 298 299 300 300 300 301
319 319 319 319 318 317 316 315 315 314 313 311 310 308 307 307 307 306 305 305 304 303 301 298 297 296 297 300 301 302 303 303 302 302 303 303 301 301 302 301 299 297 294 292 292 292 293 293 294 294 294 295 294 294 296 297 298 299 299 300 300 301 301
318 319 318 317 316 315 315 314 313 312 311 309 308 307 307 306 306 305 305 304 304 304 302 300 297 296 296 298 301 302 302 303 302 301 303 304 302 302 302 302 301 300 297 294 292 292 292 293 293 293 294 294 294 294 296 298 299 299 300 300 301 301 301

ECMWFFLT1_925_thetae_141.txt.gz
Theta_e
338 338 337 337 337 337 337 337 336 336 336 335 335 334 334 333 332 331 331 330 329 329 328 327 326 324 324 323 324 325 324 319 314 313 315 315 315 316 317 318 319 321 320 319 319 318 320 319 312 309 310 311 309 307 307 307 306 304 303 303 302 302 304
338 337 337 337 337 336 336 336 336 335 335 334 334 334 333 332 331 329 329 328 328 327 327 326 324 323 322 321 322 324 323 320 316 315 316 316 316 316 316 316 316 317 316 317 317 316 318 321 318 312 310 312 311 307 307 306 305 303 302 302 301 302 303
337 336 336 336 336 336 335 335 334 334 334 333 332 332 331 330 329 328 327 327 326 326 325 324 322 319 317 318 321 322 321 319 316 316 317 317 317 317 316 315 314 315 315 315 315 315 315 316 319 314 311 313 311 307 306 305 303 302 302 302 302 302 302
336 336 335 335 335 335 334 334 333 333 333 332 330 330 329 328 327 327 326 325 325 324 321 319 317 315 314 316 319 319 319 318 316 316 316 316 315 315 314 313 313 313 313 313 313 314 313 314 318 315 311 313 310 306 305 304 302 302 302 302 302 302 302
335 335 335 334 334 334 333 333 333 332 331 330 329 328 327 326 326 325 324 323 322 320 316 313 313 313 313 315 316 317 317 316 315 315 314 314 313 313 312 311 311 311 311 312 311 312 312 312 315 313 311 312 309 304 304 303 303 303 303 303 303 303 302
335 335 335 334 333 333 332 332 332 330 329 328 327 326 325 325 325 324 323 321 319 315 311 311 313 313 313 313 314 314 314 314 313 313 312 312 311 311 311 310 310 310 310 310 310 311 311 311 311 311 311 311 306 303 303 303 303 304 304 304 304 303 302
335 335 334 334 333 332 331 331 330 329 327 327 326 325 324 324 323 323 321 319 316 313 312 314 315 314 313 313 313 313 313 312 312 311 310 310 310 310 309 309 309 309 308 309 308 309 310 310 310 310 311 310 305 302 303 304 304 304 305 305 305 304 303
335 335 334 333 332 331 331 330 329 327 327 326 325 324 323 323 322 321 319 316 314 313 313 313 313 313 312 312 312 312 312 311 310 310 309 309 308 308 308 308 308 308 308 307 307 307 307 309 309 309 311 313 309 305 304 305 304 304 305 305 305 304 303
335 334 333 332 331 331 330 329 328 326 326 326 325 323 322 322 321 318 315 313 313 313 312 310 310 311 311 311 311 310 311 310 309 309 308 308 308 308 308 307 307 307 307 307 306 306 306 306 308 309 310 311 313 312 310 308 305 305 306 305 305 304 302
334 333 332 331 330 330 329 329 327 326 325 325 323 322 322 320 319 315 313 313 313 312 311 310 309 310 310 310 309 309 309 308 308 308 307 307 307 306 306 306 306 306 307 307 306 306 306 305 306 308 309 308 310 314 315 312 306 305 306 305 305 304 302
333 332 331 330 329 329 329 328 326 325 325 324 322 321 320 318 316 313 312 313 313 312 312 310 309 310 310 310 309 309 309 308 308 307 307 306 306 305 305 305 305 305 305 306 306 306 306 306 305 305 307 308 307 309 311 311 308 306 305 305 305 304 302
333 331 330 329 329 328 328 327 325 324 323 322 321 320 318 316 314 313 313 313 312 312 311 310 310 311 310 310 310 309 308 307 307 307 306 305 305 305 305 305 305 305 305 305 305 305 305 306 305 304 305 306 307 307 307 308 309 307 305 305 305 303 302
333 332 331 329 328 328 327 325 324 323 321 320 320 319 317 315 314 313 313 313 312 311 309 309 310 311 310 310 310 309 308 307 306 307 307 306 306 306 306 306 306 306 306 305 305 305 305 305 305 304 304 305 305 306 305 305 307 306 304 305 304 302 302
333 332 331 329 328 327 325 324 323 322 320 320 319 318 316 315 314 313 312 313 312 310 309 310 310 310 309 310 309 308 308 307 307 308 308 308 308 308 307 307 307 306 306 306 305 305 305 305 305 304 304 305 305 305 305 304 305 304 304 304 303 301 301
332 331 330 329 327 325 324 324 322 321 320 319 318 317 316 314 313 312 312 312 311 310 310 310 309 309 309 309 308 308 307 307 307 307 307 307 307 307 307 306 306 306 306 306 306 306 305 305 305 305 304 304 305 305 304 304 304 304 304 304 302 301 301
331 330 329 328 326 324 323 323 321 320 319 318 318 317 315 313 312 311 312 311 311 310 310 309 309 309 309 309 308 307 306 306 307 306 306 306 306 305 306 306 306 306 305 305 305 305 305 305 305 305 304 304 304 304 304 304 303 303 304 303 301 300 300
330 329 328 326 324 323 323 321 320 319 318 318 317 315 314 313 312 311 311 311 310 310 309 309 309 309 309 308 307 307 307 307 306 306 306 306 305 305 305 306 306 305 305 305 305 304 305 305 304 304 303 303 303 303 303 303 302 303 304 303 301 300 300
329 328 326 324 323 322 322 321 319 319 318 317 316 315 314 313 312 311 311 310 310 310 310 310 309 308 309 309 307 307 307 307 306 306 306 306 305 305 306 306 306 306 305 305 304 304 303 303 304 303 302 302 302 302 302 301 301 303 303 301 300 300 299
328 327 325 323 322 322 321 320 319 318 317 316 316 315 314 313 311 310 310 310 310 310 310 309 308 308 309 308 307 307 307 306 306 306 306 306 306 306 306 306 306 306 305 304 305 304 302 301 301 301 301 301 301 301 301 300 301 302 302 300 300 300 299
328 326 324 322 322 321 320 319 317 316 316 316 316 315 314 312 311 310 310 310 310 310 310 308 308 308 308 307 307 307 306 306 306 306 306 306 306 306 306 306 306 306 305 305 306 305 302 299 298 299 299 300 300 300 299 299 300 302 301 300 299 299 298
327 325 323 322 321 320 318 317 316 316 316 316 315 314 313 312 310 310 310 310 310 310 309 308 308 308 308 307 307 307 307 306 306 306 306 305 305 306 305 305 306 305 304 305 307 305 300 297 296 296 297 297 297 296 296 297 300 302 301 300 299 299 298
326 324 323 321 320 319 318 317 317 317 316 316 314 313 313 312 310 310 310 310 310 310 309 308 308 308 307 308 308 308 306 306 306 305 305 305 305 305 305 305 304 303 302 304 305 302 297 295 295 295 294 294 294 294 294 294 297 301 301 300 299 298 297
325 324 322 321 320 319 318 317 317 316 316 315 314 314 313 312 310 310 310 310 310 309 309 309 308 307 307 308 308 307 306 306 305 305 304 304 304 303 303 302 300 299 300 301 300 298 295 295 295 294 295 295 295 294 293 293 295 298 300 300 299 298 297
325 323 322 320 320 319 318 317 316 316 316 315 314 314 313 311 310 310 310 310 309 309 309 308 308 307 308 308 307 306 306 306 305 305 304 303 302 300 298 297 296 296 297 297 296 295 295 295 295 297 299 300 300 298 295 293 294 296 297 298 298 298 297
324 323 321 320 320 319 318 317 317 316 316 315 314 314 313 311 310 310 310 309 309 309 308 308 307 308 308 307 306 306 306 306 305 304 303 302 300 297 295 295 295 295 295 295 295 295 296 297 299 301 302 302 302 302 298 295 294 294 295 296 297 297 297
323 322 321 321 320 319 318 318 317 317 316 315 314 314 312 311 310 310 309 309 308 308 308 308 308 308 307 307 306 306 305 305 305 303 303 301 298 295 294 295 295 295 295 295 296 296 297 299 301 302 302 302 301 302 301 298 296 296 296 296 297 298 297
322 321 321 321 320 319 318 317 317 316 315 314 314 313 312 310 310 309 309 309 308 308 308 308 308 308 307 306 306 305 305 305 304 303 302 300 296 294 294 294 295 295 296 296 296 297 298 299 301 302 303 303 302 302 302 300 298 297 298 297 298 298 299
322 321 321 320 320 319 318 317 317 316 315 315 314 313 311 310 309 309 309 309 309 308 308 308 308 308 307 306 306 305 305 305 304 303 301 298 295 295 296 295 295 296 297 297 297 298 298 299 301 302 303 304 303 303 302 301 299 298 298 298 299 299 299
322 321 321 320 320 319 318 317 317 316 315 314 313 312 311 310 309 309 309 309 309 308 307 307 307 307 306 306 306 305 305 305 304 303 302 300 299 299 299 298 297 297 297 297 298 298 298 299 301 302 303 303 303 302 302 302 299 297 297 298 299 299 300
322 321 320 320 319 318 318 317 316 316 315 314 313 312 310 310 310 309 309 309 309 308 307 306 306 306 306 306 306 305 305 304 304 303 302 302 302 301 300 300 300 299 298 297 296 296 297 299 301 302 302 303 302 301 300 299 296 295 297 299 299 299 300
321 320 320 319 319 319 318 317 316 315 315 314 313 312 311 310 310 310 309 309 309 308 307 305 305 305 305 306 306 305 305 304 304 303 303 303 302 302 302 302 301 302 301 297 294 295 297 299 301 302 302 303 302 300 299 298 295 296 298 299 299 300 300
321 320 320 319 319 319 318 317 316 315 315 314 313 312 311 310 310 310 310 309 309 309 307 306 305 305 305 306 306 305 305 304 304 304 303 303 303 303 303 302 302 302 301 298 295 294 295 298 300 302 302 301 301 300 299 297 296 297 299 299 299 300 300
322 321 320 320 320 319 319 318 317 316 315 314 314 312 311 310 310 310 310 309 309 309 307 306 305 304 304 305 305 305 304 304 304 304 303 303 303 303 303 302 302 302 302 300 297 295 294 296 299 301 301 300 300 300 297 295 296 298 299 299 299 300 300
322 322 320 320 319 319 319 318 317 316 315 314 313 312 311 310 310 310 310 309 309 308 306 305 305 304 304 304 304 304 304 303 303 303 303 302 302 302 302 302 302 302 302 301 299 296 294 295 296 297 298 298 298 297 295 295 297 299 299 299 299 300 300
322 321 320 320 319 319 318 318 317 316 315 314 313 311 311 310 309 309 309 308 308 308 306 305 304 304 303 304 304 303 303 303 303 302 302 302 302 302 302 301 301 301 301 301 299 296 294 294 295 295 295 296 296 295 294 296 298 298 299 299 300 300 300
320 320 319 319 319 318 318 317 316 315 314 314 312 311 310 309 308 308 307 307 307 307 306 304 304 303 303 303 303 303 303 303 302 302 302 302 301 301 302 302 300 299 298 299 298 295 294 294 294 294 294 295 295 295 294 296 298 298 299 300 300 300 301
319 319 319 319 319 318 317 316 316 315 314 313 312 310 309 309 308 307 306 306 306 306 306 305 303 302 302 303 303 303 303 303 302 302 302 302 301 301 302 302 301 299 297 297 295 294 293 293 293 294 294 294 294 294 294 296 298 298 299 299 300 300 301

ECMWFFLT1_925_thetae_144.txt.gz
Theta_e
338 337 337 338 338 337 337 337 337 337 337 336 336 336 335 335 334 334 333 332 332 331 330 330 329 326 325 325 328 327 324 321 314 313 319 322 324 323 323 325 326 326 320 315 313 309 313 315 310 309 309 308 307 307 307 304 301 301 301 300 301 302 302
338 338 338 338 337 337 336 336 336 336 336 335 335 335 334 334 334 332 332 331 331 330 329 329 327 326 325 324 326 325 321 316 311 312 317 318 320 320 321 323 323 321 318 316 313 309 312 316 314 311 310 310 308 308 307 303 301 302 301 300 301 301 302
338 338 338 338 337 337 336 336 336 336 335 335 334 334 334 333 333 331 331 330 330 329 328 328 327 326 324 322 324 324 322 318 312 312 315 316 317 318 320 321 320 318 316 316 314 313 312 311 312 311 310 310 309 307 305 302 302 302 302 301 301 301 302
338 338 337 337 337 337 336 335 336 335 335 335 334 333 332 331 331 330 329 329 329 328 327 326 325 324 323 321 322 322 321 319 315 312 314 315 316 316 317 319 318 316 316 315 315 314 312 310 312 311 310 310 307 303 303 303 303 303 303 302 301 301 301
337 337 337 336 336 336 336 335 335 334 334 334 333 332 331 330 329 328 328 328 326 325 325 324 322 320 319 319 321 320 319 318 315 313 314 315 315 315 315 315 315 315 314 315 315 313 311 311 312 311 310 309 304 302 302 303 303 304 304 303 302 301 301
337 337 337 336 336 336 335 335 334 333 332 332 331 331 329 328 328 327 327 326 324 323 323 322 317 315 316 317 319 319 318 317 315 313 314 314 314 313 312 313 313 314 313 313 313 311 311 311 311 310 310 307 302 301 303 303 304 304 304 303 302 301 301
337 337 336 336 335 335 335 334 333 332 331 330 330 329 328 327 327 327 326 324 323 320 318 317 314 313 314 316 318 318 317 316 314 313 313 313 311 310 311 311 311 312 312 312 312 310 311 311 311 311 308 304 302 302 303 304 304 304 304 304 302 301 301
337 336 336 335 335 335 334 334 333 332 330 329 329 328 327 326 326 325 324 323 320 316 313 312 312 313 313 315 316 316 315 314 313 312 312 311 310 309 309 309 309 309 309 311 311 310 310 311 311 309 305 304 305 304 303 304 305 304 304 304 302 301 300
336 336 335 334 334 334 334 334 333 332 330 328 327 327 326 325 325 324 322 320 317 314 312 311 312 313 313 313 314 313 313 312 311 311 310 309 308 308 308 307 307 307 307 309 310 310 310 310 309 306 303 304 305 306 307 307 304 304 304 304 303 301 299
335 335 334 334 334 333 333 333 332 331 329 327 326 325 324 324 323 322 320 318 314 313 313 311 311 312 312 312 312 311 311 310 309 309 308 308 307 307 307 306 306 305 305 306 307 309 310 309 307 304 304 303 304 308 313 310 305 304 304 304 304 301 299
335 334 334 334 333 333 332 331 331 330 328 326 325 324 323 322 321 320 318 315 313 312 312 311 310 311 311 311 311 310 309 309 308 308 307 307 307 306 306 305 305 305 305 305 305 306 308 309 308 306 306 306 305 308 311 309 307 305 304 304 303 300 299
334 334 334 333 333 332 331 330 329 329 326 325 324 323 322 321 320 318 315 313 313 312 310 310 310 310 310 310 310 309 308 308 307 307 307 306 306 305 305 305 305 305 305 305 304 304 305 307 308 307 307 307 307 306 305 306 307 305 303 304 302 300 299
334 333 333 332 332 331 330 329 328 327 325 324 324 323 322 321 318 315 313 313 313 312 310 310 310 310 309 309 309 308 308 307 306 306 305 305 305 304 304 305 305 305 305 305 304 303 303 304 306 306 306 306 306 305 304 304 305 304 303 303 301 299 299
333 333 333 332 331 330 329 328 328 327 324 323 323 322 321 320 317 314 313 313 312 310 310 310 310 309 308 308 308 308 307 306 305 305 305 304 304 304 304 305 305 305 304 304 304 303 302 303 304 304 304 304 303 303 303 303 303 303 303 301 299 299 298
333 333 333 332 330 328 327 327 327 326 324 322 322 321 320 317 314 313 313 312 311 310 310 311 310 309 308 308 308 307 306 305 305 305 305 305 305 305 305 305 305 305 305 304 304 304 304 303 303 303 303 304 303 303 303 303 303 303 302 300 299 298 297
333 332 332 331 329 327 327 327 326 325 323 322 321 320 318 315 313 313 312 311 310 310 311 311 311 309 308 307 307 307 306 305 306 307 307 306 306 306 305 305 305 305 305 305 305 304 304 303 303 303 304 303 303 303 302 302 303 303 301 299 298 298 296
332 332 331 330 329 327 326 326 325 323 322 321 320 318 317 315 313 312 312 311 310 310 310 311 310 309 308 307 307 307 306 307 307 307 307 306 306 306 306 306 305 305 305 305 305 304 304 303 303 303 303 303 302 302 302 302 302 302 301 299 298 297 295
331 331 330 330 329 327 325 324 323 322 321 320 319 318 316 314 313 312 312 311 310 310 310 310 309 308 308 307 307 306 307 307 307 306 306 306 306 305 305 305 305 305 304 304 304 304 304 303 302 302 302 302 301 301 301 302 301 300 299 299 298 296 294
330 330 331 330 328 326 324 322 321 321 321 320 319 317 316 314 313 311 311 311 310 310 309 309 309 308 307 307 306 306 306 306 306 306 305 305 305 305 305 305 305 304 304 303 303 304 303 303 302 302 302 301 301 301 301 301 300 300 299 298 297 295 294
330 331 331 329 328 325 323 321 320 320 320 319 318 317 315 313 312 311 311 311 310 309 309 309 309 308 307 306 306 306 306 306 306 305 305 305 305 305 305 305 305 304 303 302 301 301 301 300 300 300 300 299 298 298 300 301 300 299 299 298 296 294 295
330 330 330 328 327 324 321 320 320 320 319 319 318 316 314 312 311 311 311 311 310 309 309 309 308 308 308 306 306 306 306 306 306 305 305 305 305 305 305 305 305 303 302 301 299 297 297 297 297 296 296 295 294 295 299 301 301 300 298 296 295 295 296
329 329 329 327 325 323 320 319 319 319 319 318 316 314 313 312 311 311 311 310 310 310 310 309 308 308 308 307 306 306 306 306 306 305 305 305 306 306 306 306 305 303 303 302 299 295 295 295 295 294 293 293 293 293 295 298 300 299 297 295 295 296 296
329 328 328 326 324 322 320 319 319 319 318 317 315 314 314 313 311 311 311 310 310 310 309 309 308 308 308 307 306 306 306 306 306 306 306 305 306 306 305 306 305 303 304 303 298 295 295 294 294 295 295 296 296 294 293 294 296 297 296 295 296 296 296
328 327 326 325 322 321 320 319 318 318 317 316 315 314 314 313 311 310 310 310 310 310 309 308 308 308 307 306 306 306 306 306 306 305 305 305 305 305 304 305 303 303 304 302 296 294 295 295 297 299 300 300 300 299 296 294 294 295 296 296 296 296 297
326 325 325 323 321 320 319 318 317 317 316 316 315 314 313 312 311 310 310 310 310 310 309 308 308 308 307 307 307 307 306 306 305 305 305 304 304 304 304 302 301 303 302 299 295 295 295 297 300 302 302 302 302 301 299 296 295 296 297 297 297 297 298
325 324 324 322 320 319 318 317 317 316 316 316 315 314 313 312 310 310 310 310 310 310 309 308 308 307 307 307 307 306 306 305 305 305 304 304 303 303 301 299 299 300 299 296 295 295 297 299 302 302 302 302 302 302 301 299 297 297 297 298 298 298 298
324 324 323 321 319 318 317 317 316 316 316 316 314 314 313 312 311 310 310 310 310 310 309 309 308 307 307 308 307 306 306 305 305 304 304 303 303 301 298 297 297 297 295 295 295 296 298 301 302 302 302 303 303 302 302 301 298 297 298 298 298 299 299
324 323 322 320 319 318 317 317 316 316 316 315 314 313 313 312 311 310 310 310 310 309 309 308 308 307 308 308 307 306 306 305 305 305 304 303 301 299 296 295 295 295 295 295 296 297 298 300 302 303 303 303 303 303 303 302 299 297 297 298 298 299 299
323 322 321 320 319 318 317 316 316 316 316 315 314 314 313 312 310 310 310 310 309 309 308 308 308 308 308 307 306 306 306 305 305 304 303 302 300 296 294 294 295 295 295 296 296 297 297 299 301 303 303 303 302 302 302 302 299 297 297 298 299 299 299
323 322 321 320 319 318 317 316 316 316 315 315 314 314 313 311 310 310 310 309 309 308 308 308 308 308 307 307 306 306 305 305 305 304 302 301 298 294 293 294 295 295 296 296 297 297 297 299 301 302 302 302 302 301 301 299 297 295 297 298 298 298 299
324 322 321 320 319 318 317 316 316 316 316 315 314 314 313 311 310 310 309 309 309 308 308 307 307 308 308 307 306 306 305 305 304 303 302 300 297 294 294 296 296 296 296 296 297 297 297 299 301 302 302 302 301 300 299 298 295 295 297 298 298 299 300
324 323 321 320 319 318 317 316 316 316 315 315 314 313 312 310 309 309 309 309 308 308 308 307 307 307 307 307 306 305 305 305 303 302 301 299 298 297 298 299 299 298 297 297 297 296 296 299 301 302 302 302 301 300 299 298 295 296 298 299 299 300 300
325 323 321 320 319 318 317 316 316 315 315 314 313 312 311 310 310 309 309 309 308 308 308 307 307 307 307 306 306 305 305 305 303 302 302 301 300 300 300 300 300 300 301 300 298 295 295 298 300 301 302 301 300 300 299 296 295 297 299 299 299 299 300
325 324 322 320 319 318 317 316 316 315 314 314 313 311 310 310 310 309 309 309 308 308 308 308 307 307 306 306 306 306 305 305 304 303 302 301 300 300 301 301 301 301 302 302 299 295 294 296 298 300 300 299 298 298 297 295 296 298 299 299 299 299 300
325 323 321 320 319 318 317 316 316 315 314 313 312 311 310 310 310 309 309 308 309 309 308 308 308 307 306 305 306 306 305 305 304 303 302 301 301 301 302 302 302 302 302 302 301 298 296 295 295 297 297 297 296 296 295 295 296 298 299 299 299 300 300
323 322 321 320 319 318 317 316 315 314 314 313 312 311 310 310 309 309 309 308 309 309 308 307 308 307 306 305 305 306 305 305 304 303 302 301 301 302 303 302 302 302 302 302 301 300 298 296 294 294 295 295 295 295 295 295 296 298 299 299 299 300 300
322 321 320 320 319 318 317 316 315 314 313 313 312 311 310 309 309 309 309 309 309 308 307 307 308 307 305 304 305 305 304 304 304 303 302 302 302 302 302 302 302 302 301 301 300 300 300 297 294 293 294 294 294 294 294 294 296 297 298 299 299 300 300